STARLINK-32333, 61626

Orbit data source: Space-Track

STARLINK-32333, 61626 is a payload satellite owned by SpaceX/Seattle (US) in LEO that was launched on Wed, 23 Oct 2024 UTC via an FALCON 9 launch vehicle from the Air Force Eastern Test Range (AFETR). Payload-class satellites include a variety of spacecraft equipped with specific instruments for various scientific and technological missions. These include communications satellites like Starlink; space stations such as the ISS; scientific satellites like the Hubble; Earth observation satellites from companies like Planet Labs, Umbra, and HawkEye 360; GPS; miniature CubeSats for education and research; and military/defense satellites.

Loading next visibility...
Identifier
61626, 2024-191F
Orbit
LEO
Country
Flag of USUS
Related business
Manufacturer
SpaceX/Seattle
Mission
Operational Commercial Communications
Bus & Motor
STARLINK V2M, Unknown motor
Mass
730 kg wet, ~700 kg dry
Launch date (UTC)
2024-10-23 (10 months ago)
Launch vehicle
FALCON 9
Launch site
Air Force Eastern Test Range (AFETR)
Object type
Payload
Rocket body
Debris
Shape & HBR
Box + 2 Pan, 14.5 m
Radar Cross Section
36.964 m², Large (>1 m²)

Expand to show TLE details & history
Last TLE update: 11 hours ago

TLE from 11 hours ago
0 STARLINK-32333
1 61626U 24191F   25243.14996950  .00003509  00000-0  13686-3 0  9991
2 61626  43.0012 154.2281 0001249 268.6305  91.4404 15.27609695 48354
Epoch: 2025-08-31T03:35Z
TLE epoch observation values (Epoch: 2025-08-31T03:35:57.364Z)
Latitude
-0°
Longitude
120.66503°
Altitude
482.757 km
Speed
7.626 km/s
True Right ascension
10h 16m 54s
True Declination
0° 00' 00"
Sunlit
Object was in daylight at epoch
Visualization orbit readout
Latitude
Unknown
Longitude
Unknown
Altitude
Unknown
Speed
Unknown
Apparent Right ascension
Unknown
Apparent Declination
Unknown
Sunlit
N/A
Visualization observer readout
Local Sidereal Time
05:52:54
Azimuth
Unknown
Elevation
Unknown
Doppler factor
Unknown
Orbital elements
Apogee altitude
485.762 km
Perigee altitude
484.048 km
Semi-major axis
6,863.042 km
Eccentricity
0.00012
Inclination
43.0012°
RAAN
154.2281°
Arg. of periapsis
268.6305°
True anomaly
91.45471°
Mean anomaly
91.4404°
Eccentric anomaly
91.44755°
Mean motion
3.8174 °/min
Orbital period
94.3 mins
BSTAR
0.00013686
Loading maneuver chart data...
Computing Atmospheric mass density...
Loading historical data...
Loading historical data...
Loading historical data...
Loading historical data...
Loading historical data...
Loading historical data...
Loading historical data...

Documentation

Showing up to 5 results
|